• In Uzbekistan
  • List of Countries
  • For 7 days
  • Water Temperature
  • Satellite Maps
  • Weather Map
  • Weather Widgets
  • user-avatar
    Login

    Hourly Weather Abu Dhabi

    Today, 23 February, Saturday

    Time Temperature Precipitation Wind Pressure Humidity
    00:00 +22°C° 0 mm 3 mps 762 mmHg 52%
    01:00 +22°C° 0 mm 3 mps 762 mmHg 54%
    02:00 +22°C° 0 mm 3 mps 762 mmHg 57%
    03:00 +21°C° 0 mm 3 mps 762 mmHg 59%
    04:00 +21°C° 0 mm 4 mps 762 mmHg 68%
    05:00 +21°C° 0 mm 4 mps 762 mmHg 70%
    06:00 +21°C° 0 mm 4 mps 762 mmHg 71%
    07:00 +21°C° 0 mm 4 mps 762 mmHg 73%
    08:00 +22°C° 0 mm 3 mps 763 mmHg 67%
    09:00 +24°C° 0 mm 3 mps 763 mmHg 61%
    10:00 +25°C° 0 mm 3 mps 763 mmHg 56%
    11:00 +26°C° 0 mm 3 mps 763 mmHg 47%
    12:00 +27°C° 0 mm 2 mps 762 mmHg 38%
    13:00 +28°C° 0 mm 2 mps 762 mmHg 30%
    14:00 +28°C° 0 mm 3 mps 762 mmHg 31%
    15:00 +29°C° 0 mm 4 mps 761 mmHg 32%
    16:00 +29°C° 0 mm 4 mps 761 mmHg 33%
    17:00 +28°C° 0 mm 4 mps 761 mmHg 42%
    18:00 +27°C° 0 mm 4 mps 761 mmHg 51%
    19:00 +26°C° 0 mm 4 mps 761 mmHg 61%
    20:00 +25°C° 0 mm 4 mps 761 mmHg 62%
    21:00 +25°C° 0 mm 3 mps 761 mmHg 63%
    22:00 +25°C° 0 mm 3 mps 761 mmHg 63%
    23:00 +25°C° 0 mm 2 mps 761 mmHg 62%

    Tomorrow, 24 February, Sunday

    Time Temperature Precipitation Wind Pressure Humidity
    00:00 +25°C° 0 mm 2 mps 761 mmHg 60%
    01:00 +25°C° 0 mm 2 mps 761 mmHg 58%
    02:00 +25°C° 0 mm 2 mps 761 mmHg 58%
    03:00 +25°C° 0 mm 2 mps 760 mmHg 58%
    04:00 +24°C° 0 mm 2 mps 760 mmHg 58%
    05:00 +24°C° 0 mm 2 mps 760 mmHg 57%
    06:00 +24°C° 0 mm 2 mps 760 mmHg 56%
    07:00 +23°C° 0 mm 2 mps 761 mmHg 55%
    08:00 +25°C° 0 mm 1 mps 761 mmHg 49%
    09:00 +26°C° 0 mm 1 mps 761 mmHg 43%
    10:00 +27°C° 0 mm 1 mps 762 mmHg 37%
    11:00 +28°C° 0 mm 1 mps 761 mmHg 34%
    12:00 +29°C° 0 mm 1 mps 761 mmHg 30%
    13:00 +30°C° 0 mm 1 mps 761 mmHg 27%
    14:00 +31°C° 0 mm 2 mps 760 mmHg 27%
    15:00 +31°C° 0 mm 3 mps 760 mmHg 27%
    16:00 +32°C° 0 mm 4 mps 759 mmHg 27%
    17:00 +29°C° 0 mm 5 mps 760 mmHg 34%
    18:00 +28°C° 0 mm 5 mps 760 mmHg 41%
    19:00 +26°C° 0 mm 5 mps 760 mmHg 48%
    20:00 +26°C° 0 mm 5 mps 760 mmHg 47%
    21:00 +26°C° 0 mm 4 mps 761 mmHg 47%
    22:00 +26°C° 0 mm 4 mps 761 mmHg 46%
    23:00 +25°C° 0 mm 3 mps 761 mmHg 46%

    Day after tomorrow, 25 February, Monday

    Time Temperature Precipitation Wind Pressure Humidity
    00:00 +25°C° 0 mm 3 mps 761 mmHg 46%
    01:00 +25°C° 0 mm 2 mps 761 mmHg 46%
    02:00 +24°C° 0 mm 2 mps 761 mmHg 47%
    03:00 +24°C° 0 mm 2 mps 761 mmHg 48%
    04:00 +24°C° 0 mm 3 mps 760 mmHg 50%
    05:00 +22°C° 0 mm 3 mps 761 mmHg 53%
    06:00 +22°C° 0 mm 4 mps 761 mmHg 57%
    07:00 +22°C° 0 mm 4 mps 761 mmHg 61%
    08:00 +23°C° 0 mm 5 mps 762 mmHg 56%
    09:00 +25°C° 0 mm 5 mps 762 mmHg 51%
    10:00 +26°C° 0 mm 5 mps 763 mmHg 46%
    11:00 +27°C° 0 mm 6 mps 762 mmHg 39%
    12:00 +28°C° 0 mm 7 mps 762 mmHg 32%
    13:00 +28°C° 0 mm 8 mps 762 mmHg 25%
    14:00 +28°C° 0 mm 8 mps 761 mmHg 27%
    15:00 +27°C° 0 mm 9 mps 761 mmHg 30%
    16:00 +27°C° 0 mm 9 mps 761 mmHg 32%
    17:00 +26°C° 0 mm 9 mps 761 mmHg 37%
    18:00 +24°C° 0 mm 9 mps 761 mmHg 42%
    19:00 +23°C° 0 mm 9 mps 761 mmHg 47%
    20:00 +23°C° 0 mm 9 mps 762 mmHg 48%
    21:00 +23°C° 0 mm 9 mps 762 mmHg 49%
    22:00 +23°C° 0 mm 9 mps 762 mmHg 50%
    23:00 +22°C° 0 mm 9 mps 762 mmHg 51%

    26 February, Tuesday

    Time Temperature Precipitation Wind Pressure Humidity
    00:00 +22°C° 0 mm 9 mps 762 mmHg 51%
    01:00 +22°C° 0 mm 9 mps 762 mmHg 51%
    02:00 +21°C° 0 mm 9 mps 761 mmHg 52%
    03:00 +21°C° 0 mm 8 mps 761 mmHg 52%
    04:00 +21°C° 0 mm 8 mps 761 mmHg 53%
    05:00 +21°C° 0 mm 8 mps 761 mmHg 54%
    06:00 +20°C° 0 mm 7 mps 761 mmHg 55%
    07:00 +20°C° 0 mm 7 mps 762 mmHg 57%
    08:00 +21°C° 0 mm 7 mps 762 mmHg 51%
    09:00 +23°C° 0 mm 6 mps 762 mmHg 46%
    10:00 +24°C° 0 mm 6 mps 763 mmHg 41%
    11:00 +24°C° 0 mm 6 mps 762 mmHg 38%
    12:00 +26°C° 0 mm 5 mps 762 mmHg 36%
    13:00 +27°C° 0 mm 5 mps 761 mmHg 33%
    14:00 +26°C° 0 mm 5 mps 760 mmHg 34%
    15:00 +26°C° 0 mm 4 mps 760 mmHg 35%
    16:00 +26°C° 0 mm 4 mps 759 mmHg 35%
    17:00 +25°C° 0 mm 4 mps 759 mmHg 39%
    18:00 +25°C° 0 mm 3 mps 759 mmHg 43%
    19:00 +24°C° 0 mm 3 mps 759 mmHg 48%
    20:00 +22°C° 0 mm 3 mps 759 mmHg 50%
    21:00 +23°C° 0 mm 2 mps 760 mmHg 52%
    22:00 +23°C° 0 mm 2 mps 760 mmHg 55%
    23:00 +21°C° 0 mm 2 mps 760 mmHg 56%

    27 February, Wednesday

    Time Temperature Precipitation Wind Pressure Humidity
    00:00 +22°C° 0 mm 1 mps 759 mmHg 58%
    01:00 +21°C° 0 mm 1 mps 759 mmHg 60%
    02:00 +21°C° 0 mm 1 mps 758 mmHg 60%
    03:00 +21°C° 0 mm 1 mps 758 mmHg 60%
    04:00 +20°C° 0 mm 1 mps 757 mmHg 60%
    05:00 +19°C° 0 mm 2 mps 758 mmHg 58%
    06:00 +19°C° 0 mm 2 mps 758 mmHg 56%
    07:00 +20°C° 0 mm 3 mps 758 mmHg 54%
    08:00 +21°C° 0 mm 3 mps 758 mmHg 45%
    09:00 +24°C° 0 mm 3 mps 759 mmHg 36%
    10:00 +26°C° 0 mm 4 mps 760 mmHg 27%
    11:00 +28°C° 0 mm 3 mps 759 mmHg 22%
    12:00 +29°C° 0 mm 3 mps 758 mmHg 16%
    13:00 +31°C° 0 mm 3 mps 758 mmHg 11%
    14:00 +32°C° 0 mm 2 mps 757 mmHg 10%
    15:00 +34°C° 0 mm 2 mps 756 mmHg 9%
    16:00 +35°C° 0 mm 2 mps 756 mmHg 9%
    17:00 +34°C° 0 mm 2 mps 756 mmHg 9%
    18:00 +34°C° 0 mm 3 mps 756 mmHg 10%
    19:00 +33°C° 0 mm 3 mps 756 mmHg 10%
    20:00 +30°C° 0 mm 5 mps 756 mmHg 20%
    21:00 +28°C° 0 mm 8 mps 757 mmHg 29%
    22:00 +27°C° 0 mm 10 mps 757 mmHg 38%
    23:00 +26°C° 0 mm 10 mps 757 mmHg 42%

    28 February, Thursday

    Time Temperature Precipitation Wind Pressure Humidity
    00:00 +24°C° 0 mm 10 mps 757 mmHg 46%
    01:00 +23°C° 0 mm 10 mps 757 mmHg 50%
    02:00 +23°C° 0 mm 9 mps 756 mmHg 49%
    03:00 +23°C° 0 mm 9 mps 756 mmHg 49%
    04:00 +23°C° 0 mm 8 mps 755 mmHg 48%
    05:00 +23°C° 0 mm 7 mps 756 mmHg 46%
    06:00 +22°C° 0 mm 6 mps 757 mmHg 44%
    07:00 +22°C° 0 mm 5 mps 757 mmHg 42%
    08:00 +25°C° 0 mm 5 mps 757 mmHg 40%
    09:00 +26°C° 0 mm 5 mps 758 mmHg 38%
    10:00 +28°C° 0 mm 4 mps 758 mmHg 36%
    11:00 +29°C° 0 mm 5 mps 757 mmHg 33%
    12:00 +30°C° 0 mm 5 mps 756 mmHg 31%
    13:00 +32°C° 0 mm 5 mps 756 mmHg 29%
    14:00 +30°C° 0 mm 7 mps 755 mmHg 35%
    15:00 +29°C° 0 mm 9 mps 754 mmHg 41%
    16:00 +28°C° 0 mm 10 mps 754 mmHg 47%
    17:00 +28°C° 0 mm 10 mps 754 mmHg 50%
    18:00 +27°C° 0 mm 9 mps 754 mmHg 52%
    19:00 +26°C° 0 mm 9 mps 754 mmHg 55%
    20:00 +26°C° 0 mm 9 mps 754 mmHg 60%
    21:00 +24°C° 0 mm 9 mps 755 mmHg 65%
    22:00 +23°C° 0 mm 9 mps 755 mmHg 69%
    23:00 +23°C° 0 mm 8 mps 755 mmHg 66%
    Show more